Flag for Bosnia-Herzegovina Weather past 2 weeks in Sarajevo, Bosnia-Herzegovina

Now
59 °F

Fog.


Feels Like: 59 °F
Forecast: 58 / 76 °F
Wind: 1 mph from North

Location: Sarajevo / Butmir

Current Time: Jul 23, 2014 at 6:45:23 AM

Latest Report: Jul 23, 2014 at 6:30 AM


Visibility: 2 mi

Pressure: 29.86 "Hg

Humidity: 100%

Dew point: 59 °F

Location of SarajevoLocation

Historic Weather in Sarajevo — Graph

°F

Sarajevo temperature yesterday

Maximum temperature yesterday: 77 °F (at 1:30 PM)
Minimum temperature yesterday: 57 °F (at 5:30 AM)
Average temperature yesterday: 69 °F

Past Weeks' High & Low Weather Summary

 TemperatureHumidityPressure
High86 °F (Jul 20, 4:00 PM)100% (Jul 12, 2:00 AM)30.15 "Hg (Jul 12, 2:00 AM)
Low50 °F (Jul 14, 5:30 AM)33% (Jul 20, 4:00 PM)29.71 "Hg (Jul 10, 8:30 AM)
Average67 °F75%29.96 "Hg
* Reported Jul 8 6:00 AM — Jul 23 6:00 AM, Sarajevo, Weather by CustomWeather, © 2014

Note: Actual official high and low records may vary slightly from our data, if they occured in-between our weather recording intervals... More about our weather records

Advertising

Sarajevo weather history for previous 24 hours

 ConditionsComfort  
Time TempWeatherWind HumidityBarometerVisibility
6:00 AM
Jul 23
59 °FFog.2 mph94%29.86 "Hg2 mi
5:30 AM59 °FPassing clouds.2 mph94%29.86 "Hg5 mi
5:00 AM59 °FPassing clouds.2 mph94%29.86 "HgN/A
4:00 AM59 °FPassing clouds.1 mph94%29.86 "HgN/A
3:00 AM57 °FPassing clouds.1 mph100%29.86 "HgN/A
2:00 AM59 °FPassing clouds.No wind100%29.86 "HgN/A
1:00 AM61 °FPassing clouds.No wind94%29.86 "HgN/A
7:00 PM
Jul 22
72 °FScattered clouds.3 mph65%29.80 "HgN/A
6:30 PM73 °FPassing clouds.7 mph61%29.80 "HgN/A
6:00 PM73 °FPassing clouds.6 mph61%29.77 "HgN/A
5:30 PM75 °FPassing clouds.5 mph57%29.77 "HgN/A
5:00 PM77 °FPassing clouds.10 mph51%29.77 "HgN/A
4:30 PM77 °FPassing clouds.2 mph54%29.77 "HgN/A
4:00 PM77 °FPassing clouds.1 mph51%29.77 "HgN/A
3:30 PM72 °FThunderstorms. Scattered clouds.2 mph57%29.77 "HgN/A
3:00 PM68 °FThunderstorms. Scattered clouds.8 mph69%29.80 "HgN/A
2:30 PM75 °FThunderstorms. Scattered clouds.3 mph54%29.77 "HgN/A
2:00 PM77 °FRain showers. Scattered clouds.2 mph51%29.80 "HgN/A
1:30 PM77 °FScattered clouds.5 mph51%29.80 "HgN/A
1:00 PM75 °FPassing clouds.5 mph50%29.80 "HgN/A
12:30 PM75 °FPassing clouds.3 mph47%29.80 "HgN/A
12:00 PM75 °FPassing clouds.2 mph50%29.83 "HgN/A
11:30 AM73 °FPassing clouds.3 mph53%29.83 "HgN/A
11:00 AM72 °FPassing clouds.6 mph57%29.83 "HgN/A
10:30 AM72 °FPassing clouds.6 mph57%29.83 "HgN/A
10:00 AM70 °FPassing clouds.5 mph64%29.83 "HgN/A
9:30 AM68 °FPassing clouds.3 mph73%29.83 "HgN/A
9:00 AM68 °FSunny.3 mph78%29.83 "Hg10 mi
8:30 AM66 °FSunny.3 mph73%29.83 "Hg10 mi
8:00 AM64 °FSunny.2 mph83%29.83 "Hg10 mi
7:30 AM63 °FSunny.2 mph94%29.83 "Hg10 mi
7:00 AM59 °FSunny.1 mph100%29.86 "Hg10 mi
6:30 AM59 °FSunny.1 mph100%29.86 "Hg10 mi
6:00 AM57 °FClear.1 mph100%29.86 "Hg10 mi
Weather by CustomWeather, © 2014

See weather overviewHow to use our weather pages